Location: Hochstatterhof
(48.7256°N, 10.3487°E)
Time: 22:26:39
(UTC+00:00)

Cosmos 1151 Rocket - Pass Details

Date: 26 September 2023
Orbit: 589 x 613 km, 82.5° (Epoch: 08 December)

Event Time Altitude Azimuth Distance (km) Brightness Sun altitude
Rises 04:34:53 0° 191° (S) 2,850 6.3 -6.7°
Reaches altitude 10° 04:37:05 10° 193° (SSW) 1,955 5.4 -6.3°
Maximum altitude 04:41:25 79° 279° (W) 629 3.0 -5.6°
Drops below altitude 10° 04:45:49 10° 7° (N) 1,981 5.8 -4.9°
Sets 04:48:03 0° 9° (N) 2,893 6.7 -4.5°
